Tracking 30922 objects as of 2-Jul-2025
HD Live streaming from Space Station
objects crossing your sky now

STARLINK-2407

Track STARLINK-2407 now!
10-day predictions
STARLINK-2407 is classified as:


NORAD ID: 47822
Int'l Code: 2021-018AM
Perigee: 553.5 km
Apogee: 555.1 km
Inclination: 53.1 °
Period: 95.6 minutes
Semi major axis: 6925 km
RCS: Unknown
Launch date: March 11, 2021
Source: United States (US)
Launch site: AIR FORCE EASTERN TEST RANGE (AFETR)
Your satellite tracking list
Your tracking list is empty




NASA's NSSDC Master Catalog

Two Line Element Set (TLE):
1 47822U 21018AM  25182.72700849  .00001752  00000-0  13643-3 0  9995
2 47822  53.0562 308.2254 0001147  96.8113 263.3006 15.06406945238295
Source of the keplerian elements: AFSPC